Weather History for Poplar Bluff, MO

Change the Weather History Date:

Wednesday, July 17, 2013

  Actual Average Record
Temperature  
Mean Temperature 84 °F -  
Max Temperature 96 °F 91 °F 108 °F (1980)
Min Temperature 73 °F 68 °F 54 °F (1926)
Cooling Degree Days 20    
Growing Degree Days 34 (Base 50)    
Moisture  
Dew Point 71 °F    
Average Humidity 65    
Maximum Humidity 90    
Minimum Humidity 37    
Precipitation  
Precipitation 0.00 in - - ()
Sea Level Pressure  
Sea Level Pressure 30.24 in    
Wind  
Wind Speed 1 mph (ENE)    
Max Wind Speed 9 mph    
Max Gust Speed -    
Visibility 10 miles    
Events      
Averages and records for this station are not official NWS values.
T = Trace of Precipitation, MM = Missing Value Source: NWS Daily Summary

Daily Weather History Graph

Daily Weather History Graph

Search for Another Location

Airport:

Trip Planner

Search our weather history database for the weather conditions in past years. The results will help you decide how hot, cold, wet, or windy it might be!

Date:

Astronomy

Jul. 17, 2013 Rise Set
Actual Time 5:55 AM CDT 8:18 PM CDT
Civil Twilight 5:25 AM CDT 8:48 PM CDT
Nautical Twilight 4:49 AM CDT 9:25 PM CDT
Astronomical Twilight 4:08 AM CDT 10:05 PM CDT
Moon 3:10 PM CDT (7/17) 12:59 AM CDT (7/17)
Length of Visible Light 15h 22m
Length of Day
14h 23m
Waxing Gibbous, 67% of the Moon is Illuminated
Jul 17
Waxing Gibbous
Jul 22
Full
Jul 29
Last Quarter
Aug 6
New
Aug 14
First Quarter

Hourly Weather History & Observations

Time (CDT) Temp. Heat Index Dew Point Humidity Pressure Visibility Wind Dir Wind Speed Gust Speed Precip Events Conditions
12:53 AM 77.0 °F - 72.0 °F 84% 30.26 in 10.0 mi Calm Calm - N/A   Clear
1:53 AM 75.9 °F - 72.0 °F 87% 30.25 in 10.0 mi Calm Calm - N/A   Clear
2:53 AM 75.0 °F - 71.1 °F 87% 30.25 in 10.0 mi Calm Calm - N/A   Clear
3:53 AM 75.0 °F - 71.1 °F 87% 30.25 in 10.0 mi Calm Calm - N/A   Clear
4:53 AM 73.9 °F - 70.0 °F 87% 30.25 in 10.0 mi Calm Calm - N/A   Clear
5:53 AM 73.0 °F - 70.0 °F 90% 30.27 in 10.0 mi Calm Calm - N/A   Clear
6:53 AM 75.9 °F - 71.1 °F 85% 30.29 in 10.0 mi Calm Calm - N/A   Clear
7:53 AM 82.0 °F 87.4 °F 73.0 °F 74% 30.30 in 10.0 mi Calm Calm - N/A   Clear
8:53 AM 84.9 °F 91.4 °F 73.0 °F 67% 30.30 in 10.0 mi Calm Calm - N/A   Clear
9:53 AM 89.1 °F 96.0 °F 72.0 °F 57% 30.29 in 6.0 mi Calm Calm - N/A   Haze
10:53 AM 91.0 °F 98.2 °F 72.0 °F 53% 30.29 in 10.0 mi Calm Calm - N/A   Clear
11:53 AM 91.0 °F 98.2 °F 72.0 °F 53% 30.28 in 10.0 mi East 3.5 mph - N/A   Clear
12:53 PM 93.0 °F 100.7 °F 72.0 °F 50% 30.27 in 10.0 mi South 5.8 mph - N/A   Partly Cloudy
1:53 PM 95.0 °F 102.5 °F 71.1 °F 46% 30.25 in 10.0 mi East 8.1 mph - N/A   Clear
2:53 PM 93.9 °F 99.1 °F 69.1 °F 44% 30.23 in 10.0 mi East 5.8 mph - N/A   Partly Cloudy
3:53 PM 96.1 °F 99.3 °F 66.0 °F 37% 30.21 in 10.0 mi Calm Calm - N/A   Clear
4:53 PM 95.0 °F 101.3 °F 70.0 °F 44% 30.19 in 10.0 mi ENE 5.8 mph - N/A   Scattered Clouds
5:53 PM 93.9 °F 99.1 °F 69.1 °F 44% 30.17 in 10.0 mi Variable 3.5 mph - N/A   Clear
6:53 PM 93.0 °F 97.9 °F 69.1 °F 45% 30.16 in 10.0 mi East 9.2 mph - N/A   Clear
7:53 PM 91.0 °F 97.6 °F 71.1 °F 52% 30.17 in 10.0 mi Calm Calm - N/A   Clear
8:53 PM 84.9 °F 92.1 °F 73.9 °F 69% 30.17 in 10.0 mi NW 4.6 mph - N/A   Clear
9:53 PM 84.0 °F 90.2 °F 73.0 °F 69% 30.19 in 10.0 mi NW 3.5 mph - N/A   Clear
10:53 PM 82.0 °F 87.4 °F 73.0 °F 74% 30.19 in 10.0 mi Calm Calm - N/A   Clear
11:53 PM 80.1 °F 84.2 °F 73.0 °F 79% 30.19 in 10.0 mi Calm Calm - N/A   Clear